GW6155 Weather Reports


Display with metric or nautical units.
time (UTC)temp
F
wind
direction
speed
MPH
gust
MPH
rain 1hr
in
rain 24hr
in
rain mn
in
humidity
%
barometer
mb
20260507192948 57 90 0.0 12.0 0.00 0.36 0.36 62 1005.4
20260507192444 58 99 6.0 6.0 0.00 0.36 0.36 62 1005.4
20260507191941 56 112 5.0 11.0 0.00 0.36 0.36 63 1005.3
20260507191437 57 109 5.0 13.0 0.00 0.36 0.36 62 1005.6
20260507190934 57 60 2.0 9.0 0.00 0.36 0.36 62 1005.5
20260507190432 59 84 3.0 7.0 0.00 0.36 0.36 60 1005.5
20260507185931 58 66 4.0 17.0 0.00 0.36 0.36 61 1005.6
20260507185427 59 168 1.0 8.0 0.00 0.36 0.36 62 1005.5
20260507184924 59 166 4.0 7.0 0.00 0.36 0.36 61 1005.7
20260507184422 58 158 6.0 11.0 0.00 0.36 0.36 59 1005.9
20260507183919 58 132 2.0 9.0 0.00 0.36 0.36 62 1005.8
20260507183416 58 72 4.0 13.0 0.00 0.36 0.36 62 1005.6
20260507182914 58 101 2.0 12.0 0.00 0.36 0.36 63 1005.8
20260507182409 58 138 3.0 8.0 0.00 0.36 0.36 64 1006.1
20260507181906 58 85 2.0 8.0 0.00 0.36 0.36 63 1005.8
20260507181402 58 101 3.0 6.0 0.00 0.36 0.36 63 1005.9
20260507180859 58 162 3.0 10.0 0.00 0.36 0.36 64 1006.0
20260507180355 59 206 2.0 5.0 0.00 0.36 0.36 65 1005.7
20260507175851 57 206 3.0 4.0 0.00 0.36 0.36 68 1006.3
20260507175348 56 119 2.0 7.0 0.00 0.36 0.36 67 1006.1
20260507174846 57 170 4.0 8.0 0.00 0.36 0.36 65 1006.2
20260507174343 58 140 3.0 9.0 0.00 0.36 0.36 63 1006.2
20260507173840 58 90 3.0 9.0 0.00 0.36 0.36 64 1006.0
20260507173337 59 163 4.0 6.0 0.00 0.36 0.36 61 1006.1
20260507172833 57 102 11.0 12.0 0.00 0.36 0.36 63 1006.2
20260507172330 58 109 5.0 10.0 0.00 0.36 0.36 67 1006.3
20260507171826 57 38 3.0 11.0 0.00 0.36 0.36 62 1006.2
20260507171323 58 96 4.0 7.0 0.00 0.36 0.36 68 1006.2
20260507170820 56 104 6.0 7.0 0.00 0.36 0.36 65 1006.6
20260507170317 56 71 5.0 8.0 0.00 0.36 0.36 64 1006.6
20260507165813 56 66 4.0 6.0 0.00 0.36 0.36 62 1006.5
20260507165309 57 261 0.0 9.0 0.00 0.36 0.36 64 1006.5
20260507164805 56 155 4.0 7.0 0.00 0.36 0.36 65 1006.6
20260507164302 57 99 3.0 7.0 0.00 0.36 0.36 62 1006.6
20260507163759 56 90 6.0 7.0 0.00 0.36 0.36 64 1006.6
20260507163257 56 75 4.0 5.0 0.00 0.36 0.36 69 1006.8
20260507162753 56 72 4.0 6.0 0.00 0.36 0.36 67 1006.9
20260507162249 55 46 3.0 10.0 0.00 0.36 0.36 69 1006.8
20260507161746 57 120 6.0 9.0 0.00 0.36 0.36 66 1006.9
20260507161242 57 70 2.0 6.0 0.00 0.36 0.36 69 1007.0
20260507160738 55 17 0.0 6.0 0.00 0.36 0.36 69 1007.0
20260507160235 54 47 3.0 11.0 0.00 0.36 0.36 70 1007.1
20260507155731 55 57 6.0 11.0 0.00 0.36 0.36 68 1007.4
20260507155227 55 52 8.0 10.0 0.00 0.36 0.36 67 1007.4
20260507154724 56 45 3.0 9.0 0.00 0.36 0.36 69 1007.4
20260507154221 57 48 5.0 7.0 0.00 0.36 0.36 70 1007.4
20260507153718 55 67 6.0 12.0 0.00 0.36 0.36 69 1007.5
20260507153214 56 90 6.0 10.0 0.00 0.36 0.36 72 1007.4
20260507152711 56 58 10.0 11.0 0.00 0.36 0.36 66 1007.2
20260507152207 57 68 4.0 9.0 0.00 0.36 0.36 69 1007.6
20260507151703 58 55 5.0 9.0 0.00 0.36 0.36 72 1007.6
20260507151200 57 49 6.0 11.0 0.00 0.36 0.36 67 1007.6
20260507150657 58 82 8.0 10.0 0.00 0.36 0.36 63 1007.4
20260507150154 60 18 2.0 3.0 0.00 0.36 0.36 66 1007.6
20260507145649 59 5 2.0 9.0 0.00 0.36 0.36 65 1007.6
20260507145147 59 358 4.0 4.0 0.00 0.36 0.36 68 1007.6
20260507144643 57 339 5.0 10.0 0.00 0.36 0.36 63 1007.7
20260507144141 57 21 3.0 7.0 0.00 0.36 0.36 65 1007.8
20260507143637 58 16 2.0 5.0 0.00 0.36 0.36 70 1007.7
20260507143135 57 335 5.0 9.0 0.00 0.36 0.36 66 1007.9
20260507142630 56 339 3.0 9.0 0.00 0.36 0.36 71 1007.8
20260507142127 57 331 6.0 9.0 0.00 0.36 0.36 71 1007.8
20260507141623 56 322 5.0 10.0 0.00 0.36 0.36 72 1008.1
20260507141120 57 320 3.0 4.0 0.00 0.36 0.36 75 1008.0
20260507140617 56 327 5.0 12.0 0.00 0.36 0.36 74 1008.0
20260507140114 56 321 6.0 9.0 0.00 0.36 0.36 76 1008.0
20260507135611 57 349 1.0 6.0 0.00 0.36 0.36 79 1007.8
20260507135109 55 344 0.0 5.0 0.00 0.36 0.36 79 1007.9
20260507134605 55 336 2.0 4.0 0.00 0.36 0.36 80 1008.1
20260507134101 54 337 4.0 7.0 0.00 0.36 0.36 83 1008.1
20260507133557 53 346 4.0 6.0 0.00 0.36 0.36 85 1007.9
20260507133055 52 354 3.0 5.0 0.00 0.36 0.36 87 1007.8
20260507132551 52 277 4.0 6.0 0.00 0.36 0.36 89 1008.1
20260507132048 52 42 3.0 5.0 0.00 0.36 0.36 91 1007.9
20260507131544 53 288 3.0 4.0 0.00 0.36 0.36 92 1008.0
20260507131042 51 340 0.0 4.0 0.00 0.36 0.36 92 1008.0
20260507130539 51 277 0.0 3.0 0.00 0.36 0.36 93 1007.9
20260507130037 50 180 0.0 2.0 0.00 0.36 0.36 93 1008.2
20260507125535 50 311 2.0 5.0 0.00 0.36 0.36 93 1007.9
20260507125032 51 180 1.0 2.0 0.00 0.36 0.36 94 1008.1
20260507124528 50 337 1.0 5.0 0.00 0.36 0.36 93 1008.2
20260507124026 50 279 0.0 3.0 0.00 0.36 0.36 94 1008.3
20260507123524 50 192 2.0 6.0 0.00 0.36 0.36 94 1008.2
20260507123021 50 259 2.0 3.0 0.00 0.36 0.36 94 1008.3
20260507122516 49 192 2.0 4.0 0.00 0.36 0.36 94 1008.4
20260507122012 49 204 2.0 4.0 0.00 0.36 0.36 94 1008.1
20260507121508 49 241 2.0 3.0 0.00 0.36 0.36 94 1007.8
20260507121004 48 319 2.0 4.0 0.00 0.36 0.36 94 1007.9
20260507120500 48 340 0.0 3.0 0.00 0.36 0.36 94 1007.7
20260507115957 48 261 0.0 2.0 0.05 0.36 0.36 94 1008.0
20260507115453 48 237 0.0 1.0 0.02 0.36 0.36 94 1007.7
20260507114949 47 180 0.0 2.0 0.02 0.35 0.35 94 1007.9
20260507114445 47 180 1.0 2.0 0.12 0.35 0.35 94 1007.9
20260507113943 47 294 0.0 3.0 0.12 0.35 0.35 94 1008.0
20260507113440 47 23 0.0 3.0 0.02 0.34 0.34 94 1007.5
20260507112937 47 345 0.0 4.0 0.05 0.33 0.33 93 1007.7
20260507112435 47 345 0.0 3.0 0.05 0.33 0.33 94 1007.7
20260507111931 47 307 2.0 3.0 0.00 0.32 0.32 93 1008.0
20260507111429 47 300 2.0 2.0 0.00 0.32 0.32 94 1008.1
20260507110925 48 101 0.0 3.0 0.00 0.32 0.32 93 1008.2
20260507110421 48 236 0.0 4.0 0.02 0.32 0.32 94 1007.5
20260507105918 47 3 2.0 7.0 0.07 0.32 0.32 94 1007.2
20260507105415 47 335 3.0 4.0 0.05 0.32 0.32 93 1007.4
20260507104911 47 334 2.0 7.0 0.02 0.31 0.31 94 1007.5
20260507104408 47 355 3.0 7.0 0.02 0.31 0.31 94 1007.5
20260507103904 48 341 3.0 4.0 0.05 0.31 0.31 94 1007.7
20260507103401 48 319 2.0 5.0 0.05 0.31 0.31 94 1007.8
20260507102857 49 335 6.0 6.0 0.05 0.30 0.30 94 1007.9
20260507102353 50 350 0.0 4.0 0.07 0.30 0.30 94 1008.1
20260507101850 50 354 4.0 4.0 0.07 0.29 0.29 94 1007.6
20260507101350 50 336 2.0 5.0 0.07 0.29 0.29 94 1007.4
20260507100848 50 219 0.0 4.0 0.02 0.28 0.28 94 1007.4
20260507100345 50 340 0.0 4.0 0.02 0.28 0.28 94 1007.3
20260507095843 50 257 0.0 6.0 0.02 0.28 0.28 94 1007.5
20260507095339 50 245 4.0 5.0 0.02 0.27 0.27 94 1007.3
20260507094837 50 356 3.0 5.0 0.05 0.27 0.27 94 1007.0
20260507094333 51 345 2.0 3.0 0.02 0.27 0.27 94 1007.3
20260507093830 51 14 1.0 3.0 0.02 0.26 0.26 94 1007.1
20260507093329 51 286 2.0 5.0 0.05 0.26 0.26 94 1006.7
20260507092826 51 270 0.0 6.0 0.02 0.26 0.26 94 1007.2
20260507092323 51 286 0.0 2.0 0.00 0.26 0.26 94 1007.3
20260507091819 51 286 0.0 2.0 0.00 0.26 0.26 94 1007.3
20260507091316 51 297 1.0 5.0 0.05 0.26 0.26 94 1006.9
20260507090811 51 306 0.0 3.0 0.07 0.26 0.26 94 1006.6
20260507090308 51 325 0.0 3.0 0.05 0.25 0.25 94 1006.8
20260507085805 51 0 1.0 5.0 0.05 0.24 0.24 94 1006.7
20260507085301 51 343 2.0 2.0 0.07 0.24 0.24 93 1006.7
20260507084759 51 337 0.0 2.0 0.09 0.24 0.24 93 1006.6
20260507084255 52 356 0.0 2.0 0.09 0.23 0.23 93 1006.5
20260507083753 53 324 0.0 3.0 0.21 0.22 0.22 93 1006.6
20260507083249 54 254 0.0 2.0 0.38 0.21 0.21 93 1006.8
20260507082745 54 340 0.0 4.0 0.33 0.18 0.18 93 1006.6
20260507082241 54 279 0.0 8.0 0.33 0.15 0.15 93 1006.6
20260507081738 54 311 2.0 3.0 0.28 0.13 0.13 93 1006.9
20260507081234 54 0 0.0 4.0 0.12 0.09 0.09 93 1006.5
20260507080731 54 283 2.0 3.0 0.19 0.08 0.08 93 1006.5
20260507080227 55 289 2.0 4.0 0.26 0.07 0.07 92 1006.7
20260507075722 55 0 5.0 6.0 0.31 0.05 0.05 92 1006.7
20260507075219 54 270 3.0 9.0 0.19 0.03 0.03 92 1006.5
20260507074715 55 8 5.0 8.0 0.00 0.00 0.00 93 1006.2
20260507074214 54 309 2.0 3.0 0.00 0.00 0.00 93 1005.5
20260507073710 54 352 0.0 2.0 0.00 0.00 0.00 93 1005.7
20260507073206 54 75 2.0 6.0 0.00 0.00 0.00 93 1005.7
20260507072704 57 82 0.0 2.0 0.00 0.00 0.00 93 1005.4
20260507072201 57 261 0.0 1.0 0.00 0.00 0.00 93 1005.8
20260507071659 57 270 0.0 2.0 0.00 0.00 0.00 93 1005.7
20260507071155 57 286 0.0 1.0 0.00 0.00 0.00 93 1005.9
20260507070652 57 251 0.0 2.0 0.00 0.00 0.00 93 1005.9
20260507070149 57 286 0.0 0.0 0.00 0.00 0.00 93 1005.6
20260507065645 57 209 0.0 1.0 0.00 0.00 0.00 93 1005.7
20260507065142 57 8 0.0 2.0 0.00 0.00 0.00 93 1005.6
20260507064640 57 277 0.0 3.0 0.00 0.00 0.00 93 1005.6
20260507064138 57 215 1.0 3.0 0.00 0.00 0.00 93 1005.3
20260507063636 57 285 0.0 3.0 0.00 0.00 0.00 93 1005.4
20260507063132 57 240 1.0 8.0 0.00 0.00 0.00 93 1005.4
20260507062629 57 275 2.0 4.0 0.00 0.00 0.00 93 1005.7
20260507062127 57 237 3.0 6.0 0.00 0.00 0.00 93 1005.9
20260507061624 57 270 1.0 4.0 0.00 0.00 0.00 93 1005.9
20260507061122 57 240 0.0 5.0 0.00 0.00 0.00 93 1005.8
20260507060620 57 239 3.0 3.0 0.00 0.00 0.00 93 1005.9
20260507060116 57 195 4.0 7.0 0.00 0.00 0.00 93 1006.3
20260507055612 57 192 2.0 5.0 0.00 0.00 0.00 93 1006.1
20260507055108 57 195 2.0 6.0 0.00 0.00 0.00 93 1006.1
20260507054604 57 277 1.0 5.0 0.00 0.00 0.00 93 1006.1
20260507054101 57 213 2.0 7.0 0.00 0.00 0.00 93 1006.2
20260507053559 57 276 4.0 6.0 0.00 0.00 0.00 93 1006.3
20260507053058 57 215 3.0 10.0 0.00 0.00 0.00 93 1006.1
20260507052555 57 254 2.0 6.0 0.00 0.00 0.00 93 1006.0
20260507052051 57 341 4.0 7.0 0.00 0.00 0.00 93 1006.1
20260507051549 57 264 2.0 5.0 0.00 0.00 0.00 93 1006.4
20260507051046 57 205 6.0 6.0 0.00 0.00 0.00 93 1006.5
20260507050542 57 201 3.0 6.0 0.00 0.00 0.00 93 1006.5
20260507050039 57 239 2.0 4.0 0.00 0.00 0.00 93 1006.3
20260507045535 57 201 3.0 6.0 0.00 0.00 0.00 93 1006.4
20260507045033 57 209 1.0 8.0 0.00 0.00 0.00 93 1006.2
20260507044529 57 251 5.0 5.0 0.00 0.00 0.00 93 1006.2
20260507044026 57 248 2.0 5.0 0.00 0.00 0.00 93 1006.2
20260507043522 57 270 1.0 6.0 0.00 0.00 0.00 93 1006.3
20260507043020 57 249 3.0 9.0 0.00 0.00 0.00 93 1006.0
20260507042515 57 213 0.0 8.0 0.00 0.00 0.00 93 1006.2
20260507042011 57 216 5.0 11.0 0.00 0.00 0.00 93 1006.1
20260507041508 57 206 4.0 4.0 0.00 0.00 0.00 93 1006.2
20260507041005 57 230 2.0 9.0 0.00 0.00 0.00 93 1006.1
20260507040501 57 243 3.0 13.0 0.00 0.00 0.00 93 1006.1
20260507035956 57 235 3.0 8.0 0.00 0.10 0.10 93 1006.4
20260507035454 57 279 4.0 10.0 0.00 0.10 0.10 93 1006.4
20260507034950 57 270 0.0 7.0 0.00 0.10 0.10 93 1006.6
20260507034447 57 195 4.0 9.0 0.00 0.10 0.10 93 1006.7
20260507033945 57 238 9.0 9.0 0.00 0.10 0.10 93 1006.4
20260507033443 57 239 2.0 15.0 0.00 0.10 0.10 93 1006.4
20260507032940 57 234 6.0 9.0 0.00 0.10 0.10 93 1006.1
20260507032437 57 202 5.0 14.0 0.00 0.10 0.10 93 1006.4
20260507031932 57 225 4.0 12.0 0.00 0.10 0.10 93 1006.0
20260507031429 57 227 6.0 9.0 0.00 0.10 0.10 93 1006.0
20260507030926 57 230 2.0 7.0 0.00 0.10 0.10 93 1005.9
20260507030423 57 252 2.0 9.0 0.00 0.10 0.10 93 1006.2
20260507025920 57 253 5.0 10.0 0.00 0.10 0.10 94 1005.9
20260507025418 57 214 6.0 10.0 0.00 0.10 0.10 94 1005.9
20260507024915 57 270 3.0 9.0 0.00 0.10 0.10 94 1005.6
20260507024413 57 230 7.0 16.0 0.00 0.10 0.10 94 1005.8
20260507023908 57 180 1.0 13.0 0.00 0.10 0.10 94 1005.9
20260507023405 57 237 5.0 11.0 0.00 0.10 0.10 94 1006.0
20260507022903 57 171 3.0 6.0 0.00 0.10 0.10 94 1005.9
20260507022359 57 202 4.0 9.0 0.00 0.10 0.10 94 1005.8
20260507021855 57 254 2.0 6.0 0.00 0.10 0.10 94 1006.0
20260507021350 57 270 3.0 14.0 0.00 0.10 0.10 94 1006.2
20260507020849 57 270 0.0 7.0 0.00 0.10 0.10 94 1006.1
20260507020345 57 226 4.0 13.0 0.00 0.10 0.10 94 1006.4
20260507015842 57 206 4.0 6.0 0.00 0.10 0.10 94 1006.5
20260507015340 57 210 2.0 10.0 0.00 0.10 0.10 94 1006.3
20260507014837 57 243 3.0 9.0 0.00 0.10 0.10 94 1006.7
20260507014333 57 256 3.0 6.0 0.00 0.10 0.10 94 1006.3
20260507013829 57 235 2.0 6.0 0.00 0.10 0.10 94 1006.5
20260507013326 57 219 0.0 5.0 0.00 0.10 0.10 94 1006.6
20260507012824 57 228 5.0 11.0 0.00 0.10 0.10 94 1006.9
20260507012320 57 210 3.0 9.0 0.00 0.10 0.10 94 1006.4
20260507011817 57 243 2.0 9.0 0.00 0.10 0.10 94 1006.6
20260507011314 57 197 5.0 15.0 0.00 0.10 0.10 94 1006.7
20260507010814 57 202 5.0 9.0 0.00 0.10 0.10 94 1006.4
20260507010309 57 236 2.0 7.0 0.00 0.10 0.10 94 1006.6
20260507005807 57 254 1.0 8.0 0.00 0.10 0.10 94 1006.5
20260507005305 57 194 4.0 13.0 0.00 0.10 0.10 94 1006.6
20260507004800 57 204 5.0 7.0 0.00 0.10 0.10 94 1006.7
20260507004258 57 241 4.0 13.0 0.00 0.10 0.10 94 1006.7
20260507003754 57 237 10.0 14.0 0.00 0.10 0.10 94 1006.6
20260507003249 57 160 0.0 14.0 0.02 0.10 0.10 94 1007.0
20260507002745 57 206 4.0 14.0 0.02 0.10 0.10 94 1006.6
20260507002241 57 233 9.0 13.0 0.07 0.10 0.10 94 1006.5
20260507001738 57 231 3.0 11.0 0.12 0.10 0.10 94 1006.4
20260507001236 58 202 6.0 14.0 0.05 0.09 0.09 94 1006.6
20260507000732 57 195 2.0 10.0 0.00 0.08 0.08 94 1006.7
20260507000228 57 195 4.0 4.0 0.00 0.08 0.08 94 1006.6
20260506235725 57 212 3.0 8.0 0.02 0.08 0.08 93 1006.6
20260506235220 57 180 1.0 6.0 0.05 0.08 0.08 93 1006.7
20260506234717 57 219 2.0 6.0 0.02 0.07 0.07 93 1006.6
20260506234215 57 183 3.0 5.0 0.00 0.07 0.07 93 1006.9
20260506233712 57 227 3.0 10.0 0.02 0.07 0.07 93 1007.0
20260506233208 58 219 2.0 10.0 0.05 0.07 0.07 93 1006.6
20260506232705 58 285 0.0 9.0 0.12 0.07 0.07 93 1007.0
20260506232200 58 290 2.0 11.0 0.12 0.06 0.06 92 1006.8
20260506231658 58 274 3.0 4.0 0.05 0.05 0.05 92 1006.8
20260506231156 58 213 4.0 7.0 0.02 0.04 0.04 92 1006.6
20260506230652 58 320 3.0 5.0 0.00 0.04 0.04 92 1006.8
20260506230149 58 184 6.0 9.0 0.00 0.04 0.04 91 1006.7
20260506225646 59 210 5.0 11.0 0.02 0.04 0.04 91 1006.9
20260506225143 59 180 3.0 7.0 0.02 0.04 0.04 91 1006.8
20260506224639 59 180 0.0 9.0 0.02 0.04 0.04 91 1007.1
20260506224136 59 177 3.0 6.0 0.02 0.04 0.04 90 1006.9
20260506223632 59 159 4.0 9.0 0.00 0.03 0.03 90 1007.3
20260506223128 59 180 4.0 10.0 0.02 0.03 0.03 90 1007.2
20260506222625 60 180 3.0 11.0 0.00 0.03 0.03 90 1007.1
20260506222121 60 286 0.0 6.0 0.00 0.03 0.03 90 1007.2
20260506221619 60 199 2.0 8.0 0.00 0.03 0.03 89 1007.3
20260506221117 60 227 5.0 10.0 0.00 0.03 0.03 89 1007.1
20260506220613 60 244 4.0 6.0 0.00 0.03 0.03 89 1007.4
20260506220109 60 223 5.0 11.0 0.00 0.03 0.03 89 1007.3
20260506215606 61 132 4.0 9.0 0.00 0.03 0.03 89 1007.4
20260506215101 61 183 3.0 7.0 0.00 0.03 0.03 89 1007.2
20260506214558 61 205 3.0 12.0 0.05 0.03 0.03 88 1007.2
20260506214055 62 222 6.0 9.0 0.05 0.03 0.03 88 1007.2
20260506213553 62 207 3.0 10.0 0.00 0.02 0.02 87 1007.2
20260506213050 62 215 9.0 11.0 0.00 0.02 0.02 86 1007.4
20260506212547 62 212 3.0 11.0 0.00 0.02 0.02 86 1007.4
20260506212042 62 218 3.0 8.0 0.00 0.02 0.02 85 1007.6
20260506211538 62 195 4.0 13.0 0.00 0.02 0.02 85 1007.5
20260506211036 62 204 5.0 8.0 0.00 0.02 0.02 86 1007.7
20260506210532 62 229 6.0 12.0 0.00 0.02 0.02 86 1007.6
20260506210029 61 296 3.0 8.0 0.00 0.02 0.02 86 1007.7
20260506205526 61 210 5.0 14.0 0.00 0.02 0.02 86 1007.6
20260506205021 61 190 0.0 11.0 0.00 0.02 0.02 87 1007.5
20260506204519 61 243 10.0 10.0 0.00 0.02 0.02 87 1007.8
20260506204016 60 270 3.0 16.0 0.00 0.02 0.02 88 1007.7
20260506203514 60 230 7.0 16.0 0.00 0.02 0.02 89 1007.7
20260506203010 60 210 4.0 10.0 0.00 0.02 0.02 89 1007.8
20260506202508 60 216 6.0 12.0 0.02 0.02 0.02 89 1008.0
20260506202003 60 174 3.0 7.0 0.07 0.02 0.02 89 1007.9
20260506201502 60 200 5.0 8.0 0.07 0.02 0.02 88 1008.1
20260506200958 61 226 11.0 13.0 0.05 0.01 0.01 88 1008.0
20260506200454 61 231 4.0 19.0 0.02 0.00 0.00 87 1008.1
20260506195950 62 270 2.0 12.0 0.00 0.00 0.00 84 1008.1
20260506195448 64 227 7.0 7.0 0.00 0.00 0.00 80 1007.9
20260506194944 64 216 10.0 15.0 0.00 0.00 0.00 79 1008.2
20260506194442 64 266 8.0 12.0 0.00 0.00 0.00 78 1008.3
20260506193938 64 167 4.0 24.0 0.00 0.00 0.00 78 1008.2
20260506193436 64 184 6.0 21.0 0.00 0.00 0.00 77 1007.9